Vorticity
7 5 5 6 7 7 6 6 6 6 5 5 6 7 9 10 10 11 11 9 9 8 8 8 8 8 7 7 8 8 8 9 8 8 8 8 9 8 8 8 7 8 9 10 10 8 8 6 5 4 4 5 7 8 10 11 11 9 6 7 10 10 10 6 1 2 8 10 10 12 11 11 11 8
6 5 6 8 8 7 6 5 5 5 5 6 8 10 9 9 11 12 11 8 8 8 8 8 9 9 8 8 9 9 9 9 10 10 9 8 9 9 9 9 8 8 8 9 10 9 9 8 6 6 6 6 6 6 7 8 10 9 7 7 8 10 12 9 5 3 2 4 16 28 24 11 8 10
6 6 8 8 7 6 5 5 5 6 8 10 11 10 8 9 10 10 9 8 8 8 8 8 9 10 10 10 11 11 11 11 11 11 11 10 10 9 9 9 9 9 8 8 9 9 10 10 9 7 6 6 6 6 7 8 9 10 10 9 7 7 10 10 8 5 4 5 10 22 30 22 11 9
7 8 7 7 6 6 5 6 7 9 12 12 10 8 7 9 10 9 8 7 7 8 8 7 7 8 9 9 10 10 10 11 11 10 11 11 11 11 10 10 9 9 9 8 8 8 9 10 10 9 7 7 6 6 7 8 9 9 10 10 7 7 8 9 10 7 5 8 5 2 12 22 21 17
8 7 7 6 5 5 6 8 10 11 12 11 7 6 7 8 8 8 7 7 7 8 10 11 9 9 9 7 7 7 7 8 8 8 8 9 9 9 9 9 10 10 10 9 9 9 9 9 9 9 8 7 7 7 7 7 6 6 10 10 8 8 8 8 10 9 6 7 8 2 3 13 23 28
7 6 6 6 6 7 9 10 10 10 10 8 6 6 7 7 7 9 9 10 10 8 10 13 11 10 10 8 7 7 6 6 7 8 8 8 7 8 9 9 8 8 8 9 9 8 8 9 9 9 9 8 7 7 7 6 5 6 9 11 9 7 9 10 10 11 10 8 6 4 3 7 14 23
6 6 6 7 8 9 9 9 9 9 8 8 7 7 7 8 10 12 12 13 11 8 8 9 8 8 8 8 8 9 9 9 9 9 10 10 9 8 8 9 10 10 8 7 8 8 8 8 8 8 9 10 9 8 8 7 6 7 7 8 9 8 8 9 7 7 10 14 12 5 2 4 5 6
7 8 8 9 8 8 8 8 8 9 9 9 9 9 10 11 12 12 11 11 10 8 7 7 8 8 8 8 8 8 10 12 13 13 13 13 14 14 12 11 10 11 11 10 9 7 7 7 7 8 8 10 10 9 8 7 6 8 8 6 6 7 8 7 6 6 7 13 17 11 5 4 1 -1
8 7 7 7 7 7 8 8 9 10 10 10 11 11 12 12 11 11 10 9 9 8 7 7 8 9 9 9 10 10 9 9 11 14 17 18 17 18 20 19 16 13 12 13 12 11 9 8 7 8 8 8 9 10 9 8 7 7 8 8 7 8 8 6 6 7 6 7 13 14 12 10 3 0
5 7 8 8 9 10 10 11 11 11 11 11 12 12 11 10 8 8 7 7 8 9 10 10 10 12 13 13 13 15 15 13 11 11 16 20 20 19 21 23 23 21 18 15 14 13 12 11 9 8 8 8 8 9 10 10 8 7 6 7 9 12 12 8 6 7 5 5 8 10 13 16 12 5
10 12 13 12 12 12 12 12 11 11 11 11 10 9 7 5 5 5 6 8 9 10 11 13 13 14 15 17 17 18 20 22 21 17 15 15 18 19 20 19 20 21 22 22 21 19 16 14 12 10 9 9 9 8 9 10 10 8 6 5 6 8 9 7 7 10 8 5 6 8 10 14 15 12
13 14 14 13 13 12 11 10 10 11 10 9 7 6 5 6 7 8 9 11 13 14 15 16 17 17 18 19 20 20 20 21 23 24 22 17 15 18 19 20 19 17 18 21 23 23 21 18 15 12 10 10 10 9 9 10 11 9 7 5 4 3 2 1 4 11 11 7 6 8 8 9 13 17
13 14 13 12 11 10 9 9 9 8 6 5 5 5 7 9 10 12 13 14 14 15 16 17 18 18 18 18 19 19 19 20 19 22 23 22 20 19 18 19 20 18 17 19 21 21 22 21 20 16 12 10 11 11 10 11 11 11 8 6 6 5 3 1 3 8 11 9 8 9 7 6 10 16
15 14 11 9 8 8 8 8 7 6 5 5 6 7 8 9 10 12 13 14 15 16 16 16 15 15 17 18 19 18 17 18 18 19 20 21 22 22 21 22 25 24 19 18 22 24 23 21 20 19 16 12 11 11 11 11 11 11 11 9 8 9 9 9 7 7 8 7 8 9 8 7 8 13
12 9 7 8 7 7 7 7 6 6 6 7 9 11 12 12 13 13 13 14 15 16 17 17 17 17 16 16 17 17 17 19 20 21 23 24 26 28 27 25 28 31 26 21 24 30 33 28 21 20 19 15 13 11 10 12 13 12 12 11 9 7 8 9 8 8 7 7 8 7 5 8 10 13
7 7 7 7 7 7 6 6 6 7 8 10 12 13 14 15 15 16 16 17 17 17 17 17 17 16 15 16 18 19 21 23 24 25 29 32 34 35 34 30 28 33 33 28 22 24 36 39 27 23 22 17 14 14 10 10 12 12 12 12 9 7 5 5 5 6 7 8 10 8 4 5 11 13
7 8 7 7 7 6 6 6 7 9 11 12 13 14 15 16 17 17 18 18 18 18 16 15 14 14 15 19 21 22 23 23 25 27 27 25 23 22 25 24 22 23 23 23 20 18 31 43 35 28 28 22 16 14 12 10 11 12 13 13 11 9 8 5 5 7 7 6 6 8 8 6 8 13
8 8 7 6 6 5 6 8 9 10 12 13 14 15 16 16 16 16 16 16 15 15 13 13 14 15 18 21 21 22 24 24 24 22 17 13 10 12 18 21 21 22 20 22 23 18 22 37 41 37 36 29 20 17 13 10 10 11 13 13 11 10 9 8 7 7 6 5 3 7 13 11 8 12
7 6 5 5 6 7 8 9 9 10 12 14 15 16 16 16 16 16 15 14 14 13 13 14 15 17 19 20 18 20 24 23 20 18 16 15 15 17 22 24 21 20 20 21 21 15 14 23 32 39 45 38 26 20 16 12 11 11 12 14 13 11 9 8 10 8 4 5 7 10 14 14 11 12
6 6 6 6 7 8 9 8 9 10 12 15 17 16 16 16 16 15 14 14 14 13 13 15 17 18 18 18 16 19 24 23 19 19 18 15 15 16 18 17 15 17 24 28 27 22 19 23 26 33 45 46 35 25 18 14 11 10 12 15 13 12 11 8 9 9 7 6 7 7 7 8 10 13
6 6 6 7 8 9 8 8 8 11 14 17 16 16 16 15 14 14 14 14 14 13 14 16 16 16 16 16 14 17 24 24 18 19 18 11 10 15 18 15 14 23 33 32 28 26 27 35 41 41 47 51 45 34 24 18 15 12 12 15 15 13 12 10 8 9 10 10 7 3 0 -1 4 11
6 6 7 8 9 9 8 8 10 12 16 17 16 16 15 13 12 12 13 12 11 12 15 16 16 15 14 14 12 14 23 26 21 19 17 12 9 12 16 15 12 23 32 24 16 22 27 31 36 40 48 54 49 41 31 20 15 14 12 14 15 15 12 10 10 10 9 10 9 7 7 5 4 7
6 7 8 9 9 9 9 9 11 13 16 17 15 15 15 13 12 12 11 8 7 10 13 14 15 14 12 13 12 11 17 25 28 24 17 13 11 8 10 13 10 16 30 24 11 12 16 17 19 25 39 51 51 50 46 32 18 16 20 19 15 16 16 11 9 12 10 10 10 9 10 12 8 4
7 8 9 9 9 10 10 10 12 15 17 16 15 15 14 11 11 12 10 7 6 9 12 14 15 14 11 12 13 11 12 19 28 33 26 18 14 9 9 14 12 13 26 32 23 13 10 13 17 16 22 35 39 37 42 44 29 13 16 25 22 17 18 14 10 11 10 10 11 9 9 10 11 9
8 8 10 10 10 10 10 10 13 16 16 15 15 16 13 10 11 12 9 6 6 8 10 13 16 15 12 13 13 12 12 13 19 30 34 28 20 13 11 14 15 15 21 28 29 21 12 13 18 15 10 19 28 24 22 35 35 13 4 17 24 20 17 14 12 13 12 11 11 9 9 10 9 9
8 9 10 10 10 10 10 12 16 17 15 15 16 15 13 11 12 11 8 6 6 6 8 11 16 17 14 13 14 13 12 12 13 19 29 33 28 20 14 11 11 11 13 19 27 28 18 11 16 21 14 7 14 20 19 27 37 25 6 5 14 19 19 14 12 12 12 13 13 10 9 12 12 7
9 10 10 10 10 11 12 15 17 16 15 16 17 15 12 11 10 9 8 7 6 5 6 9 14 19 18 14 14 14 12 12 11 11 17 27 30 27 22 17 13 11 10 14 22 29 27 17 11 20 25 15 7 8 10 18 31 32 18 8 10 16 18 15 13 15 14 13 13 12 9 10 11 5
10 9 10 11 11 11 14 16 16 15 16 17 16 13 11 11 10 9 8 8 7 7 6 7 11 17 20 17 14 14 13 13 13 10 9 14 21 27 27 24 18 13 11 12 17 24 31 28 17 12 18 23 19 11 8 15 25 28 24 20 19 19 19 16 13 14 17 14 12 13 14 13 11 3
10 10 12 12 11 13 16 16 16 16 16 16 14 11 11 10 9 9 9 9 9 8 7 7 8 12 17 19 16 14 12 12 13 13 11 9 11 18 24 25 23 18 13 13 15 18 23 30 30 22 13 14 20 19 18 20 21 21 21 19 15 17 24 28 24 17 15 14 12 10 11 14 14 8
10 11 11 10 12 16 18 16 16 16 15 14 12 10 10 10 10 10 10 10 10 9 8 8 8 8 10 14 16 16 15 13 12 13 13 12 10 10 13 16 20 23 22 17 14 14 16 20 26 30 27 21 20 19 20 21 19 20 22 14 -2 -8 2 19 29 29 21 15 14 13 12 15 15 12
11 11 10 12 16 18 17 15 15 15 13 11 10 10 10 10 11 11 11 11 10 10 10 10 9 7 6 7 10 13 15 16 16 15 13 12 12 12 11 9 12 19 25 24 19 15 14 13 15 21 25 27 27 26 24 22 20 19 22 20 8 0 2 8 17 26 26 19 15 15 16 20 18 14
11 10 11 15 18 17 15 14 14 13 11 10 10 10 11 11 12 12 12 12 11 11 11 11 10 9 8 7 6 8 9 11 14 15 15 14 12 12 12 11 10 12 15 20 22 20 16 13 12 13 16 19 22 27 28 27 24 21 20 21 18 15 16 16 16 20 24 21 16 10 9 14 17 14
10 12 14 16 16 14 14 15 14 12 10 10 10 11 11 12 13 13 12 11 11 11 11 11 10 10 10 9 8 8 7 8 8 9 11 13 13 13 13 13 13 12 11 12 16 21 22 19 14 12 14 14 14 17 21 21 23 23 23 24 23 18 16 18 19 21 22 21 20 15 10 11 14 12
12 14 16 16 16 15 15 14 12 10 9 10 10 11 12 12 13 13 12 11 11 11 11 10 10 9 9 9 9 9 9 8 8 8 8 8 9 10 12 13 14 14 14 13 13 16 21 25 22 18 16 16 14 13 15 16 18 18 17 18 21 21 21 21 20 20 21 19 19 19 18 18 16 13
14 15 17 17 15 15 14 12 11 9 9 10 11 11 12 13 13 13 12 11 11 11 9 8 7 7 7 7 7 7 8 7 8 8 8 8 8 7 8 9 11 13 14 15 16 15 15 18 21 19 20 22 20 17 16 15 16 17 18 17 16 16 19 21 21 22 22 22 21 19 19 20 19 17
15 16 17 16 14 13 12 10 9 9 9 10 11 12 12 12 12 12 11 10 9 8 7 6 6 5 6 6 6 6 6 6 6 7 7 8 9 8 7 7 7 8 9 11 13 14 14 14 14 14 16 19 19 18 19 17 15 15 18 20 19 18 18 19 20 20 20 22 22 20 18 18 17 17
17 17 17 15 12 11 10 9 8 9 9 10 11 11 11 12 11 10 9 8 7 6 5 5 6 5 5 4 4 4 4 4 5 5 5 6 6 7 8 8 8 7 7 8 8 9 11 13 13 12 13 13 12 14 19 22 20 18 18 17 16 17 18 18 20 20 20 20 21 20 20 20 20 19
18 18 15 13 11 10 9 8 8 8 9 10 10 10 10 10 9 8 7 7 6 6 5 5 5 5 4 4 4 4 3 3 3 3 3 4 4 5 6 6 7 8 7 7 8 7 7 9 10 11 13 13 13 13 14 17 17 17 19 20 20 19 18 17 17 17 18 19 20 21 22 22 21 21
19 17 13 10 9 8 7 7 7 8 8 8 8 8 8 8 7 7 6 5 6 6 5 5 5 5 4 4 4 4 3 3 3 3 3 3 3 3 4 4 5 6 6 6 7 7 7 7 7 8 9 10 12 14 14 14 13 12 12 14 15 18 20 20 19 18 17 16 16 16 17 18 18 19
18 15 11 9 8 7 7 7 7 7 7 7 7 7 7 6 6 6 5 5 5 5 5 6 5 5 5 4 4 4 4 4 4 4 4 3 3 3 3 3 3 3 4 5 5 6 6 7 7 8 8 7 8 10 11 12 13 14 13 12 11 11 13 14 17 19 19 19 18 18 17 16 16 16
16 12 9 8 8 7 7 6 6 6 6 6 6 7 7 6 6 6 5 6 5 5 5 6 6 5 5 5 4 4 4 5 5 5 4 4 5 4 3 3 3 2 2 3 4 5 5 5 5 6 6 7 7 7 8 9 10 11 12 12 13 12 11 11 12 12 13 15 16 18 18 18 18 17
13 10 9 8 7 7 6 6 6 6 6 6 6 6 7 7 7 6 5 5 5 5 5 5 6 6 6 6 5 5 5 5 5 5 5 5 5 5 5 5 4 4 3 2 2 3 3 4 5 5 5 6 6 6 6 7 7 8 9 9 10 11 12 12 13 12 12 12 11 12 13 14 14 15
11 9 9 8 7 6 6 6 6 6 5 5 6 6 6 6 7 7 6 5 5 5 5 5 5 5 6 7 7 6 6 6 6 5 6 6 6 6 6 6 6 6 6 4 3 3 3 3 3 4 5 5 5 5 6 6 5 6 7 7 7 8 9 9 10 11 12 13 13 12 12 11 11 12
10 9 8 7 6 6 6 5 5 5 5 5 5 5 5 5 5 6 7 7 7 7 6 5 4 4 4 6 7 7 7 7 7 6 6 6 7 7 7 7 7 7 7 7 6 5 5 4 3 4 4 4 4 4 5 5 5 5 5 6 6 6 7 7 8 9 9 10 11 12 12 12 11 11
9 8 7 7 6 6 6 6 5 5 5 5 5 4 4 5 5 6 7 8 8 8 8 6 5 4 4 5 6 7 7 6 6 7 6 6 7 7 7 7 7 7 7 8 7 7 6 6 5 5 4 4 5 5 4 4 4 4 5 5 5 5 5 6 6 7 7 8 8 8 9 10 10 10
Height
5782 5780 5779 5777 5775 5772 5770 5768 5766 5764 5762 5760 5757 5755 5753 5751 5750 5749 5747 5744 5741 5739 5737 5736 5733 5731 5729 5728 5726 5725 5723 5722 5721 5719 5718 5717 5716 5715 5714 5712 5711 5710 5710 5710 5710 5710 5709 5709 5709 5709 5708 5707 5708 5709 5709 5710 5710 5710 5711 5711 5712 5712 5713 5714 5714 5715 5716 5717 5717 5718 5720 5722 5724 5726
5778 5777 5775 5773 5771 5769 5766 5764 5762 5760 5757 5755 5753 5751 5749 5747 5744 5743 5742 5739 5736 5734 5732 5730 5729 5726 5724 5722 5721 5718 5717 5716 5715 5713 5712 5711 5710 5709 5708 5707 5705 5704 5703 5703 5703 5704 5704 5703 5703 5703 5703 5702 5702 5703 5704 5705 5705 5706 5707 5707 5707 5708 5709 5708 5709 5711 5712 5712 5712 5712 5714 5717 5719 5721
5775 5773 5771 5769 5767 5765 5762 5760 5758 5755 5753 5751 5748 5746 5743 5742 5739 5737 5736 5734 5730 5728 5727 5725 5723 5721 5718 5716 5715 5713 5711 5709 5708 5706 5705 5704 5703 5702 5701 5700 5699 5698 5697 5696 5696 5697 5697 5697 5698 5698 5698 5697 5697 5697 5698 5699 5700 5700 5701 5702 5703 5704 5704 5704 5705 5707 5707 5707 5708 5708 5710 5713 5715 5716
5771 5769 5767 5765 5763 5760 5758 5756 5753 5751 5749 5746 5744 5741 5739 5736 5735 5732 5730 5729 5725 5721 5721 5719 5716 5714 5712 5710 5708 5707 5705 5703 5701 5700 5698 5697 5696 5695 5694 5693 5692 5692 5691 5690 5689 5690 5690 5691 5691 5691 5691 5692 5692 5692 5693 5694 5694 5695 5696 5697 5699 5699 5700 5700 5700 5702 5703 5703 5704 5705 5707 5708 5709 5711
5768 5765 5763 5761 5759 5756 5754 5752 5749 5747 5744 5742 5739 5736 5734 5731 5729 5727 5724 5723 5720 5715 5713 5712 5710 5708 5706 5703 5701 5700 5698 5696 5695 5693 5691 5690 5689 5688 5687 5686 5685 5684 5684 5683 5683 5682 5683 5683 5684 5684 5684 5685 5686 5687 5687 5688 5689 5690 5691 5693 5694 5694 5694 5696 5696 5697 5698 5698 5699 5701 5702 5703 5705 5706
5764 5761 5759 5757 5755 5752 5750 5748 5745 5742 5740 5737 5735 5732 5729 5726 5724 5722 5719 5717 5714 5710 5707 5705 5703 5701 5699 5697 5694 5692 5691 5689 5688 5686 5684 5682 5681 5680 5679 5678 5677 5676 5676 5676 5676 5675 5675 5676 5677 5677 5678 5678 5679 5680 5681 5682 5682 5684 5686 5687 5689 5689 5689 5691 5692 5692 5693 5694 5696 5697 5698 5699 5701 5702
5760 5757 5755 5753 5750 5748 5746 5743 5740 5738 5735 5733 5730 5727 5724 5721 5718 5715 5713 5710 5708 5705 5701 5698 5697 5694 5691 5689 5687 5685 5682 5681 5679 5678 5676 5674 5672 5671 5670 5669 5668 5668 5668 5668 5667 5667 5668 5668 5669 5670 5670 5671 5672 5673 5675 5676 5676 5677 5679 5681 5682 5684 5684 5685 5686 5687 5688 5690 5691 5693 5694 5695 5697 5698
5756 5753 5751 5749 5746 5744 5741 5738 5736 5733 5731 5728 5726 5723 5719 5716 5712 5709 5706 5704 5701 5699 5695 5691 5689 5687 5684 5681 5678 5677 5674 5671 5669 5668 5667 5665 5664 5662 5660 5659 5658 5658 5658 5659 5659 5658 5659 5660 5661 5662 5663 5663 5664 5665 5667 5669 5670 5671 5672 5674 5676 5678 5679 5680 5681 5682 5684 5685 5686 5688 5690 5691 5693 5694
5752 5750 5747 5744 5742 5740 5737 5735 5732 5729 5727 5724 5721 5718 5714 5710 5707 5703 5700 5697 5694 5691 5689 5685 5681 5678 5676 5673 5669 5667 5665 5662 5659 5657 5655 5653 5653 5653 5651 5649 5648 5648 5648 5649 5649 5650 5650 5651 5652 5653 5654 5655 5656 5657 5659 5661 5663 5665 5666 5668 5669 5671 5673 5674 5675 5676 5678 5680 5681 5683 5684 5686 5688 5689
5748 5746 5743 5740 5738 5736 5733 5731 5728 5725 5722 5719 5716 5713 5709 5706 5702 5698 5694 5691 5688 5684 5681 5678 5674 5671 5668 5665 5661 5657 5655 5652 5650 5648 5646 5642 5640 5641 5640 5639 5637 5637 5638 5639 5640 5640 5641 5641 5642 5644 5645 5646 5647 5648 5651 5653 5655 5657 5660 5661 5663 5665 5667 5669 5670 5671 5673 5675 5676 5677 5678 5681 5683 5684
5744 5741 5739 5737 5734 5732 5729 5727 5724 5721 5718 5715 5712 5709 5705 5701 5697 5693 5689 5685 5682 5679 5675 5671 5668 5664 5661 5657 5653 5649 5646 5642 5639 5638 5638 5635 5631 5629 5628 5627 5626 5626 5627 5629 5630 5630 5630 5631 5632 5634 5635 5637 5638 5639 5642 5645 5647 5649 5652 5655 5657 5659 5661 5663 5665 5666 5668 5669 5671 5672 5673 5674 5677 5679
5740 5738 5735 5733 5731 5728 5726 5723 5720 5717 5714 5711 5707 5704 5700 5696 5692 5688 5684 5680 5676 5673 5669 5664 5660 5657 5653 5650 5646 5642 5638 5634 5630 5627 5626 5625 5623 5621 5618 5615 5615 5616 5616 5619 5619 5618 5619 5621 5622 5624 5625 5626 5628 5630 5633 5636 5639 5641 5644 5647 5650 5652 5654 5656 5659 5660 5662 5664 5665 5667 5667 5669 5671 5673
5737 5734 5732 5730 5727 5725 5722 5719 5716 5713 5709 5706 5702 5698 5695 5691 5687 5683 5679 5675 5671 5667 5663 5659 5654 5650 5646 5643 5639 5635 5631 5627 5623 5619 5617 5614 5613 5612 5609 5605 5604 5605 5607 5609 5609 5606 5607 5610 5611 5613 5615 5616 5618 5621 5623 5627 5630 5633 5636 5639 5642 5645 5648 5650 5652 5655 5657 5658 5660 5662 5663 5663 5665 5667
5733 5731 5729 5726 5724 5721 5718 5715 5712 5708 5705 5702 5698 5694 5690 5687 5682 5678 5674 5670 5666 5662 5658 5654 5650 5645 5640 5636 5632 5628 5623 5619 5615 5611 5608 5605 5603 5601 5600 5597 5594 5594 5597 5600 5599 5595 5594 5599 5601 5601 5603 5606 5608 5611 5613 5617 5621 5625 5628 5631 5634 5638 5641 5643 5646 5648 5651 5652 5654 5656 5657 5658 5660 5662
5730 5727 5725 5722 5720 5717 5714 5711 5707 5704 5700 5697 5693 5689 5685 5681 5678 5674 5669 5665 5661 5657 5653 5649 5645 5640 5635 5631 5626 5622 5617 5612 5608 5603 5599 5597 5594 5591 5590 5588 5586 5585 5586 5589 5589 5584 5583 5588 5590 5590 5592 5595 5598 5601 5604 5607 5611 5616 5620 5623 5626 5629 5633 5636 5639 5641 5644 5646 5648 5650 5652 5653 5655 5656
5726 5724 5721 5719 5716 5713 5710 5706 5703 5699 5695 5691 5688 5683 5680 5676 5672 5668 5664 5660 5656 5652 5648 5644 5639 5635 5630 5625 5621 5616 5611 5606 5601 5597 5592 5589 5586 5583 5581 5580 5579 5578 5577 5577 5578 5576 5573 5576 5578 5579 5581 5585 5587 5591 5594 5597 5602 5607 5611 5615 5618 5622 5625 5628 5632 5634 5637 5640 5641 5644 5646 5647 5649 5651
5722 5720 5718 5715 5712 5709 5706 5702 5698 5694 5690 5686 5683 5679 5675 5671 5667 5663 5659 5655 5652 5648 5643 5639 5634 5630 5626 5621 5616 5611 5606 5601 5596 5592 5588 5584 5581 5578 5575 5574 5573 5573 5570 5569 5570 5569 5565 5566 5568 5568 5570 5573 5577 5581 5585 5588 5592 5597 5602 5607 5610 5614 5617 5621 5624 5627 5631 5633 5635 5637 5640 5642 5644 5646
5719 5717 5714 5711 5708 5705 5702 5698 5694 5690 5686 5682 5679 5675 5672 5668 5664 5660 5656 5652 5648 5644 5639 5635 5630 5626 5621 5617 5612 5607 5601 5597 5592 5588 5585 5582 5578 5574 5571 5569 5568 5567 5565 5563 5564 5562 5558 5558 5558 5558 5559 5563 5567 5572 5576 5580 5584 5588 5594 5599 5603 5606 5610 5614 5618 5621 5624 5627 5629 5632 5634 5636 5638 5640
5716 5714 5711 5708 5705 5702 5698 5694 5690 5686 5683 5679 5675 5671 5668 5664 5660 5657 5653 5649 5645 5641 5636 5632 5627 5622 5617 5613 5608 5603 5598 5593 5588 5584 5581 5578 5575 5571 5567 5565 5563 5561 5559 5558 5557 5555 5553 5552 5550 5549 5550 5553 5557 5562 5567 5571 5576 5580 5585 5591 5595 5600 5603 5607 5611 5614 5618 5621 5623 5626 5628 5630 5632 5634
5713 5711 5708 5705 5701 5698 5694 5691 5687 5683 5680 5676 5672 5668 5664 5660 5657 5653 5649 5645 5642 5638 5634 5629 5624 5619 5614 5609 5605 5600 5595 5590 5586 5582 5578 5575 5572 5569 5565 5562 5559 5557 5554 5552 5551 5550 5547 5545 5543 5541 5542 5545 5549 5554 5559 5564 5569 5574 5578 5584 5589 5593 5597 5601 5605 5608 5611 5614 5617 5620 5622 5624 5627 5629
5710 5708 5705 5702 5698 5695 5691 5688 5684 5680 5677 5673 5670 5666 5662 5658 5654 5650 5646 5642 5639 5635 5631 5626 5621 5616 5611 5607 5602 5597 5593 5588 5584 5580 5577 5573 5571 5567 5563 5560 5557 5554 5551 5548 5547 5545 5543 5540 5537 5535 5536 5538 5542 5547 5552 5558 5563 5568 5572 5577 5582 5587 5591 5595 5599 5602 5605 5608 5611 5614 5616 5618 5621 5623
5708 5705 5702 5698 5695 5691 5688 5685 5681 5678 5674 5671 5667 5663 5660 5656 5652 5648 5645 5641 5637 5632 5628 5623 5619 5615 5610 5605 5601 5596 5591 5587 5583 5579 5575 5572 5569 5566 5562 5558 5555 5551 5548 5546 5544 5542 5540 5537 5534 5533 5532 5534 5537 5541 5546 5552 5557 5562 5568 5572 5576 5581 5585 5589 5593 5596 5600 5602 5605 5607 5610 5613 5616 5617
5705 5702 5699 5695 5692 5689 5685 5682 5679 5676 5672 5668 5665 5661 5658 5654 5651 5648 5644 5640 5636 5631 5627 5622 5618 5613 5609 5605 5600 5596 5591 5586 5582 5578 5574 5571 5568 5564 5561 5557 5554 5551 5547 5545 5543 5541 5538 5536 5534 5533 5533 5533 5536 5539 5543 5548 5554 5559 5564 5568 5572 5576 5580 5584 5588 5591 5594 5596 5599 5601 5604 5607 5609 5611
5702 5699 5695 5692 5689 5686 5683 5680 5676 5673 5670 5666 5663 5660 5656 5653 5649 5646 5642 5638 5634 5630 5626 5621 5617 5612 5608 5604 5600 5595 5591 5586 5582 5577 5574 5570 5567 5564 5560 5557 5554 5551 5547 5544 5542 5541 5539 5537 5536 5535 5535 5535 5537 5540 5543 5547 5551 5557 5561 5564 5568 5572 5575 5579 5583 5586 5588 5591 5593 5596 5598 5600 5603 5606
5698 5695 5692 5689 5686 5683 5680 5677 5674 5671 5667 5664 5661 5658 5655 5651 5648 5644 5641 5637 5633 5629 5625 5621 5616 5612 5608 5604 5600 5596 5591 5586 5582 5577 5574 5570 5567 5565 5561 5558 5554 5551 5548 5545 5542 5541 5539 5538 5537 5537 5537 5538 5539 5541 5544 5546 5549 5554 5559 5561 5563 5567 5569 5573 5577 5580 5583 5585 5588 5590 5593 5595 5598 5601
5695 5692 5689 5686 5683 5681 5678 5675 5671 5668 5665 5662 5659 5656 5653 5650 5646 5643 5640 5636 5633 5629 5625 5621 5617 5613 5609 5605 5601 5597 5592 5587 5582 5577 5574 5570 5567 5564 5561 5558 5554 5551 5548 5546 5543 5541 5540 5539 5538 5538 5538 5539 5540 5541 5544 5546 5548 5552 5555 5556 5558 5561 5565 5569 5572 5575 5578 5580 5583 5585 5588 5590 5593 5596
5692 5689 5686 5684 5681 5678 5675 5672 5669 5666 5663 5660 5657 5654 5651 5648 5645 5642 5639 5636 5633 5629 5626 5622 5618 5614 5610 5606 5602 5597 5593 5588 5583 5579 5575 5571 5567 5563 5560 5557 5554 5551 5549 5547 5544 5542 5541 5540 5539 5539 5539 5539 5540 5541 5543 5545 5547 5549 5551 5553 5555 5558 5562 5565 5568 5570 5573 5576 5578 5580 5583 5585 5587 5590
5689 5686 5684 5681 5679 5676 5673 5670 5667 5664 5661 5658 5655 5652 5649 5647 5644 5641 5638 5636 5633 5629 5626 5622 5619 5615 5610 5606 5602 5598 5593 5588 5584 5580 5576 5572 5568 5564 5561 5558 5555 5552 5550 5549 5546 5544 5542 5541 5540 5540 5540 5540 5541 5542 5543 5544 5545 5547 5549 5551 5554 5557 5559 5562 5564 5566 5569 5571 5574 5575 5577 5579 5582 5584
5686 5684 5681 5679 5676 5673 5671 5668 5665 5662 5659 5656 5654 5651 5648 5646 5643 5640 5638 5635 5632 5629 5626 5622 5619 5615 5610 5606 5602 5597 5593 5589 5585 5582 5578 5574 5570 5566 5563 5559 5556 5554 5552 5550 5548 5546 5544 5542 5541 5541 5541 5541 5541 5542 5543 5544 5545 5546 5548 5550 5552 5554 5556 5558 5559 5561 5564 5566 5569 5571 5572 5574 5577 5580
5684 5681 5679 5676 5674 5671 5668 5665 5663 5660 5658 5655 5652 5650 5647 5645 5642 5640 5637 5635 5632 5629 5626 5622 5619 5615 5611 5606 5602 5598 5595 5592 5588 5585 5581 5577 5573 5569 5565 5562 5559 5557 5554 5552 5550 5548 5546 5544 5542 5542 5541 5541 5542 5542 5543 5543 5544 5545 5547 5549 5550 5551 5552 5553 5555 5557 5559 5561 5564 5567 5568 5570 5573 5575
5681 5679 5677 5674 5671 5669 5666 5664 5661 5659 5656 5654 5651 5649 5646 5644 5642 5639 5637 5634 5631 5628 5625 5622 5619 5615 5611 5607 5604 5600 5597 5594 5590 5587 5583 5579 5576 5572 5568 5565 5562 5559 5556 5554 5552 5550 5548 5546 5544 5543 5543 5542 5542 5542 5542 5543 5544 5545 5546 5547 5548 5548 5549 5550 5552 5553 5555 5557 5560 5562 5564 5566 5568 5570
5679 5677 5674 5672 5669 5667 5665 5662 5660 5657 5655 5652 5650 5648 5646 5643 5641 5638 5636 5633 5630 5628 5625 5622 5619 5615 5612 5609 5605 5602 5599 5595 5592 5588 5585 5581 5578 5574 5571 5568 5565 5562 5559 5556 5554 5552 5550 5548 5547 5545 5544 5543 5543 5542 5542 5542 5543 5544 5545 5545 5546 5546 5547 5548 5549 5550 5552 5553 5556 5558 5559 5561 5563 5565
5677 5674 5672 5670 5667 5665 5663 5661 5658 5656 5654 5652 5649 5647 5645 5643 5640 5638 5635 5633 5630 5628 5625 5622 5619 5616 5613 5610 5607 5603 5600 5597 5594 5590 5587 5583 5580 5577 5574 5571 5568 5565 5563 5560 5557 5554 5552 5550 5549 5547 5546 5545 5544 5543 5543 5543 5543 5543 5544 5544 5545 5545 5546 5546 5547 5548 5549 5550 5552 5553 5555 5557 5558 5560
5674 5672 5670 5667 5665 5663 5661 5659 5657 5655 5653 5651 5649 5647 5645 5642 5640 5638 5635 5633 5630 5628 5625 5623 5620 5617 5614 5611 5608 5605 5602 5598 5595 5592 5589 5585 5582 5579 5576 5573 5570 5567 5565 5562 5559 5557 5555 5552 5550 5548 5547 5546 5545 5544 5544 5543 5543 5543 5543 5543 5543 5544 5544 5545 5545 5545 5546 5547 5548 5549 5551 5552 5554 5555
5672 5669 5667 5665 5663 5661 5660 5658 5656 5654 5652 5650 5648 5646 5644 5642 5640 5637 5635 5633 5630 5628 5626 5623 5620 5617 5615 5612 5609 5606 5603 5599 5596 5593 5590 5587 5584 5581 5578 5575 5572 5569 5567 5564 5562 5559 5556 5554 5551 5550 5548 5547 5546 5545 5545 5544 5543 5543 5542 5542 5542 5542 5542 5542 5543 5543 5544 5545 5545 5546 5547 5549 5550 5551
5669 5667 5665 5663 5662 5660 5658 5657 5655 5653 5651 5649 5647 5646 5643 5641 5639 5637 5635 5633 5631 5628 5626 5623 5620 5618 5615 5612 5610 5607 5604 5600 5597 5594 5592 5589 5586 5583 5580 5577 5574 5572 5569 5566 5564 5561 5558 5556 5554 5552 5550 5549 5548 5547 5546 5545 5544 5543 5543 5542 5542 5541 5541 5541 5541 5541 5541 5542 5543 5543 5544 5546 5547 5548
5667 5665 5663 5661 5660 5658 5657 5655 5654 5652 5650 5649 5647 5645 5643 5641 5639 5637 5635 5633 5631 5628 5626 5623 5621 5618 5616 5613 5610 5607 5605 5602 5599 5596 5593 5590 5587 5585 5582 5579 5577 5574 5571 5569 5566 5563 5561 5559 5557 5555 5553 5552 5550 5549 5548 5546 5545 5544 5543 5542 5542 5541 5541 5540 5540 5540 5540 5540 5540 5540 5541 5542 5543 5544
5664 5663 5661 5660 5658 5657 5656 5654 5653 5651 5649 5648 5646 5644 5642 5640 5638 5636 5634 5632 5630 5628 5625 5623 5621 5618 5616 5613 5611 5608 5605 5602 5600 5597 5594 5591 5589 5586 5584 5581 5579 5576 5573 5571 5568 5565 5563 5561 5559 5557 5555 5554 5552 5551 5549 5547 5546 5545 5544 5543 5542 5541 5541 5540 5540 5539 5539 5539 5539 5539 5539 5540 5540 5541
5662 5661 5659 5658 5657 5656 5654 5653 5652 5650 5648 5647 5645 5643 5641 5639 5637 5635 5633 5631 5629 5627 5624 5622 5620 5618 5616 5613 5611 5608 5606 5603 5600 5598 5595 5592 5590 5587 5585 5582 5580 5577 5575 5572 5570 5567 5565 5563 5561 5559 5557 5555 5554 5552 5550 5549 5547 5546 5545 5544 5543 5542 5541 5540 5540 5539 5539 5539 5538 5538 5538 5538 5539 5539
5660 5659 5658 5657 5655 5654 5653 5652 5650 5649 5647 5645 5643 5642 5640 5638 5636 5634 5632 5630 5628 5626 5624 5621 5619 5617 5615 5613 5610 5608 5605 5603 5601 5598 5596 5593 5590 5588 5585 5583 5580 5578 5576 5573 5571 5569 5567 5565 5563 5561 5559 5557 5555 5553 5552 5550 5549 5547 5546 5544 5543 5542 5542 5541 5540 5540 5539 5539 5538 5538 5538 5538 5538 5538
5658 5657 5656 5655 5654 5653 5652 5650 5649 5647 5646 5644 5642 5640 5638 5637 5635 5633 5631 5629 5627 5624 5622 5620 5618 5616 5614 5611 5609 5607 5604 5602 5600 5597 5595 5593 5590 5588 5585 5583 5580 5578 5576 5574 5572 5570 5568 5566 5564 5562 5560 5558 5556 5554 5553 5551 5550 5548 5547 5545 5544 5543 5542 5541 5541 5540 5539 5539 5538 5538 5537 5537 5537 5537
5656 5655 5654 5653 5652 5651 5650 5648 5647 5645 5644 5642 5640 5639 5637 5635 5633 5631 5629 5627 5625 5623 5621 5619 5616 5614 5612 5610 5607 5605 5603 5601 5599 5596 5594 5592 5590 5587 5585 5583 5580 5578 5575 5573 5571 5570 5568 5566 5564 5562 5560 5558 5557 5555 5554 5552 5551 5549 5548 5546 5545 5544 5543 5542 5541 5540 5539 5539 5538 5537 5537 5537 5536 5536
5654 5653 5652 5651 5650 5649 5648 5646 5645 5643 5642 5640 5638 5636 5635 5632 5630 5628 5627 5625 5623 5621 5619 5617 5615 5613 5610 5608 5605 5603 5601 5599 5597 5594 5592 5590 5588 5586 5584 5582 5580 5578 5575 5573 5570 5568 5567 5565 5563 5562 5560 5558 5556 5555 5553 5552 5551 5549 5548 5547 5545 5544 5543 5542 5541 5540 5539 5538 5537 5537 5536 5536 5535 5535
5652 5651 5650 5649 5648 5647 5646 5644 5643 5641 5639 5638 5636 5634 5632 5630 5628 5626 5624 5622 5620 5618 5616 5614 5612 5610 5608 5606 5603 5601 5598 5596 5594 5592 5590 5588 5586 5584 5582 5580 5578 5576 5574 5572 5570 5567 5565 5563 5562 5560 5559 5557 5556 5554 5552 5551 5550 5549 5547 5546 5545 5544 5542 5541 5540 5539 5538 5538 5537 5536 5535 5534 5534 5533
5650 5649 5648 5647 5646 5645 5644 5642 5641 5639 5637 5635 5633 5631 5629 5627 5625 5623 5621 5619 5617 5615 5613 5611 5609 5606 5604 5602 5600 5598 5596 5594 5591 5589 5587 5585 5583 5581 5579 5577 5575 5573 5572 5570 5568 5566 5564 5562 5560 5558 5556 5555 5554 5552 5551 5549 5548 5547 5546 5545 5543 5542 5541 5540 5539 5538 5537 5536 5535 5535 5534 5533 5532 5532